Zurück zum Katalog

STARLINK-30613

AktivKommunikationVLEO
NORAD 58077·PAYLOAD·🇺🇸 United States

Gestartet Oct 18, 2023 von Cape Canaveral Space Force Station

Loading…

Nächste Überflüge (nächste 24 Stunden)

TLE

AktuellSource: CelesTrak SupGP

Epoche: Sep 15, 2026, 02:56 UTC

1 58077C 23160C   26258.12270833  .00001253  00000+0  45365-4 0  2583
2 58077  42.9997  87.9948 0001439 272.0257 248.3278 15.27583204    18

Verfolge STARLINK-30613 in Echtzeit mit AllMySat

Download on the App Store